Weather History for Honolulu, HI

Change the Weather History Date:

Saturday, February 9, 2013

  Actual Average Record
Temperature  
Mean Temperature 74 °F 73 °F  
Max Temperature 81 °F 80 °F 86 °F (1996)
Min Temperature 66 °F 66 °F 53 °F (1981)
Degree Days  
Heating Degree Days 0 0  
Month to date heating degree days 0 0  
Since 1 July heating degree days 0 0  
Cooling Degree Days 9 8  
Month to date cooling degree days 88 72  
Year to date cooling degree days 307 326  
Growing Degree Days 24 (Base 50)    
Moisture  
Dew Point 61 °F    
Average Humidity 68    
Maximum Humidity 87    
Minimum Humidity 49    
Precipitation  
Precipitation 0.00 in 0.06 in 0.38 in (1979)
Month to date precipitation T 0.57  
Year to date precipitation 2.42 2.88  
Snow  
Snow 0.00 in - - ()
Month to date snowfall 0.0  
Since 1 July snowfall 0.0  
Snow Depth 0.00 in    
Sea Level Pressure  
Sea Level Pressure 30.11 in    
Wind  
Wind Speed 9 mph (NNE)    
Max Wind Speed 20 mph    
Max Gust Speed 25 mph    
Visibility 10 miles    
Events      
T = Trace of Precipitation, MM = Missing Value Source: NWS Daily Summary

Daily Weather History Graph

Daily Weather History Graph

Search for Another Location

Airport:

Trip Planner

Search our weather history database for the weather conditions in past years. The results will help you decide how hot, cold, wet, or windy it might be!

Date:

Astronomy

Feb. 09, 2013 Rise Set
Actual Time 7:05 AM HST 6:26 PM HST
Civil Twilight 6:42 AM HST 6:49 PM HST
Nautical Twilight 6:16 AM HST 7:16 PM HST
Astronomical Twilight 5:49 AM HST 7:42 PM HST
Moon 6:27 AM HST (2/9) 6:16 PM HST (2/9)
Length of Visible Light 12h 07m
Length of Day
11h 21m
Waning Crescent, 0% of the Moon is Illuminated
Feb 9
Waning Crescent
Feb 9
New
Feb 17
First Quarter
Feb 25
Full
Mar 4
Last Quarter

Hourly Weather History & Observations

Time (HST) Temp. Heat Index Dew Point Humidity Pressure Visibility Wind Dir Wind Speed Gust Speed Precip Events Conditions
12:53 AM 69.1 °F - 63.0 °F 81% 30.10 in 10.0 mi NW 5.8 mph - N/A   Partly Cloudy
1:53 AM 69.1 °F - 62.1 °F 78% 30.09 in 10.0 mi NNW 4.6 mph - N/A   Partly Cloudy
2:53 AM 66.9 °F - 62.1 °F 84% 30.08 in 10.0 mi North 4.6 mph - N/A   Partly Cloudy
3:53 AM 66.9 °F - 62.1 °F 84% 30.08 in 10.0 mi NNW 5.8 mph - N/A   Partly Cloudy
4:53 AM 66.9 °F - 63.0 °F 87% 30.08 in 10.0 mi Calm Calm - N/A   Partly Cloudy
5:53 AM 66.9 °F - 62.1 °F 84% 30.09 in 10.0 mi NW 3.5 mph - N/A   Partly Cloudy
6:53 AM 66.9 °F - 62.1 °F 84% 30.11 in 10.0 mi NNW 4.6 mph - N/A   Scattered Clouds
7:53 AM 66.9 °F - 63.0 °F 87% 30.12 in 10.0 mi Variable 3.5 mph - N/A   Scattered Clouds
8:53 AM 73.9 °F - 64.0 °F 71% 30.13 in 10.0 mi Calm Calm - N/A   Scattered Clouds
9:53 AM 77.0 °F - 62.1 °F 60% 30.14 in 10.0 mi NE 8.1 mph - N/A   Scattered Clouds
10:53 AM 80.1 °F 80.9 °F 60.1 °F 50% 30.13 in 10.0 mi NE 11.5 mph 19.6 mph N/A   Scattered Clouds
11:53 AM 80.1 °F 80.7 °F 59.0 °F 48% 30.12 in 10.0 mi ENE 16.1 mph 23.0 mph N/A   Scattered Clouds
12:53 PM 79.0 °F - 59.0 °F 50% 30.09 in 10.0 mi NE 13.8 mph 25.3 mph N/A   Scattered Clouds
1:53 PM 81.0 °F 81.3 °F 59.0 °F 47% 30.07 in 10.0 mi NE 16.1 mph 25.3 mph N/A   Scattered Clouds
2:53 PM 80.1 °F 80.7 °F 59.0 °F 48% 30.06 in 10.0 mi ENE 13.8 mph 23.0 mph N/A   Scattered Clouds
3:53 PM 80.1 °F 80.7 °F 59.0 °F 48% 30.06 in 10.0 mi NE 13.8 mph 18.4 mph N/A   Partly Cloudy
4:53 PM 79.0 °F - 59.0 °F 50% 30.07 in 10.0 mi NE 12.7 mph - N/A   Scattered Clouds
5:53 PM 75.9 °F - 60.1 °F 58% 30.09 in 10.0 mi NE 10.4 mph 17.3 mph N/A   Scattered Clouds
6:53 PM 73.9 °F - 60.1 °F 62% 30.11 in 10.0 mi NE 8.1 mph - N/A   Partly Cloudy
7:53 PM 73.9 °F - 60.1 °F 62% 30.13 in 10.0 mi NE 8.1 mph 18.4 mph N/A   Scattered Clouds
8:53 PM 73.0 °F - 59.0 °F 61% 30.15 in 10.0 mi NE 12.7 mph - N/A   Scattered Clouds
9:53 PM 73.0 °F - 59.0 °F 61% 30.16 in 10.0 mi NE 11.5 mph - N/A   Partly Cloudy
10:53 PM 72.0 °F - 61.0 °F 68% 30.15 in 10.0 mi NE 10.4 mph - N/A   Scattered Clouds
11:53 PM 73.0 °F - 60.1 °F 64% 30.15 in 10.0 mi NE 15.0 mph 23.0 mph N/A   Partly Cloudy